Flag for Norway Weather past 2 weeks in Lillesand, Norway

Now
60 °F

Cool.


Feels Like: 60 °F
Forecast: 54 / 64 °F
Wind: 6 mph from Northeast

Location: Kristiansand / Kjevik

Current Time: Aug 4, 2015 at 2:18:49 PM

Latest Report: Aug 4, 2015 at 1:00 PM


Visibility: N/A

Pressure: 29.91 "Hg

Humidity: 95%

Dew point: 59 °F

Location of LillesandLocation

Historic Weather in Lillesand — Graph

°F

Lillesand temperature yesterday

Maximum temperature yesterday: 65 °F (at 4:00 PM)
Minimum temperature yesterday: 46 °F (at 4:00 AM)
Average temperature yesterday: 58 °F

Past Weeks' High & Low Weather Summary

 TemperatureHumidityPressure
High69 °F (Jul 31, 5:00 PM)98% (Jul 30, 3:00 AM)30.14 "Hg (Jul 30, 3:00 AM)
Low46 °F (Aug 3, 4:00 AM)33% (Jul 31, 5:00 PM)29.32 "Hg (Jul 29, 9:00 AM)
Average58 °F74%29.73 "Hg
* Reported Jul 20 1:00 PM — Aug 4 1:00 PM, Lillesand, Weather by CustomWeather, © 2015

Note: Actual official high and low records may vary slightly from our data, if they occured in-between our weather recording intervals... More about our weather records

Advertising

Lillesand weather history for previous 24 hours

 ConditionsComfort  
Time TempWeatherWind HumidityBarometerVisibility
1:00 PM
Tue, Aug 4
60 °FCool.6 mph95%29.91 "HgN/A
12:00 PM61 °FCool.5 mph95%29.95 "HgN/A
11:00 AM61 °FCool.5 mph92%29.92 "HgN/A
10:00 AM61 °FCool.5 mph91%29.92 "HgN/A
9:00 AM62 °FCool.5 mph91%29.90 "HgN/A
8:00 AM60 °FCool.6 mph91%29.91 "HgN/A
7:00 AM60 °FCool.6 mph91%29.92 "HgN/A
6:00 AM58 °FCool.6 mph94%29.93 "HgN/A
5:00 AM58 °FCool.7 mph89%29.93 "HgN/A
4:00 AM59 °FCool.5 mph81%29.97 "HgN/A
3:00 AM58 °FCool.6 mph77%29.98 "HgN/A
2:00 AM57 °FCool.7 mph75%30.00 "HgN/A
1:00 AM56 °FCool.8 mph78%30.01 "HgN/A
12:00 AM57 °FCool.8 mph77%30.03 "HgN/A
10:00 PM
Mon, Aug 3
59 °FCool.6 mph76%30.05 "HgN/A
9:00 PM61 °FCool.8 mph76%30.05 "HgN/A
8:00 PM62 °FCool.7 mph64%30.06 "HgN/A
7:00 PM62 °FCool.7 mph62%30.06 "HgN/A
6:00 PM63 °FMild.7 mph51%30.07 "HgN/A
5:00 PM65 °FMild.6 mph48%30.09 "HgN/A
4:00 PM65 °FMild.5 mph58%30.11 "HgN/A
3:00 PM64 °FMild.6 mph66%30.11 "HgN/A
2:00 PM62 °FMild.6 mph66%30.13 "HgN/A
Weather by CustomWeather, © 2015

See weather overviewHow to use our weather pages